Погода в Коммунаре

Погода в Коммунаре : погода сейчас, прогноз погоды и архив. Всё, что Вы хотите узнать о погоде в Коммунаре!

Хотите узнать прогноз погоды в Коммунаре? Тогда Вам сюда: Погода в Коммунаре

Поиск расширенной информации на нашем сайте:

Другие новости

Новости СМИ2

Главная страница сайта

Новости сайта

03.07.2017

Напоминаем, что на нашем специализированном сайте Метеоцентр.Азия вы можете получить высокодетализированные автоматические прогнозы погоды по пунктам России, СНГ и мира в авиационном формате (включающие направление и скорость ветра, видимость, явления погоды, количество и форму облачности, нижнюю и верхнюю границу облачности).

Рекомендуем: Представления для детей от года новогодние елки детям.

Погода в Коммунаре - сегодня

Время (UTC), дата Ветер
(°,м/с) 
Видим.   Явления Облачность Т
(°С)
Тd
(°С)
f(%) Тe
(°С)
Pmin
(гПа)
dP
(гПа)
Po
(мм)
O2
(г/м3)
Тmin Tmax R s Состояние
почвы
03 18.08.17 тихо ()   20000 м    ясно 
+11.6 +8.6 82 +13  1016.1  -0.4  689  265           
06 18.08.17 тихо ()   20000 м    ясно 
+17.8 +10.1 61 +21  1013.4  -0.5  689  259           
09 18.08.17 270 (З) 20000 м    8/4 600 м кучево-дожд., верхняя 
[Cb cap|Ci fib]
+19.3 +11.3 60 +26  1011.7  -1.1  688  257           
12 18.08.17 270 (З) 20000 м    8/3 600 м средняя, верхняя 
[Sc|Ac trans|Ci fib]
+16.6 +12.8 78 +25  1012.4  -0.2  688  259    +20.5       
15 18.08.17 тихо ()   н/о    4/3 600 м средняя 
[Sc|Ac trans]
+13.2 +10.9 86 +17  1013.9  0.3  688  262           
18 18.08.17 тихо ()   н/о    1/1 600 м 
[Sc]
+11.4 +10.8 96 +15  1013.9  -0.5  688  264           
21 18.08.17 270 (З) н/о  гроза без осадков  6/3 600 м кучево-дожд., средняя 
[Cb cap|Ac trans]
+10.5 +9.9 96 +15  1013.3  -0.9  687  265           
00 19.08.17 230 (ЮЗ) 20000 м  {гроза}  10/5 600 м средняя, верхняя 
[Sc|Ac und|Ci fib]
+12.4 +10.3 87 +17  1012.9  0.2  687  263  +10.5        влажная 
03 19.08.17 230 (ЮЗ) 20000 м    9/4 600 м средняя, верхняя 
[Sc|Ac trans|Ci sp]
+16 +11.2 73 +22  1011.7  0.1  688  259           
06 19.08.17 250 (З) 20000 м    8/3 600 м кучево-дожд., средняя, верхняя 
[Cb cap|Ac trans|Ci sp]
+17.8 +9.9 60 +21  1010.7  -0.3  687  258           
09 19.08.17 200 (Ю) 20000 м  слаб. ливневой дождь  10/8 600 м кучево-дожд., средняя 
[Cb cap|Ac und]
+15.3 +9.7 69 +19  1011.9  0.2  687  260           
12 19.08.17 230 (ЮЗ) 20000 м  слаб. ливневой дождь  10/10 600 м кучево-дожд. 
[Cb cap]
+12.6 +10.7 88 +17  1014  1.1  688  263    +18.5     
15 19.08.17 230 (ЮЗ) н/о  слаб. ливневой дождь  10/10 600 м кучево-дожд. 
[Cb cap]
+11.4 +11 97 +17  1015.3  0.8  689  264           
18 19.08.17 тихо ()   н/о  слаб. ливневой дождь  10/10 600 м кучево-дожд. 
[Cb cap]
+10.2 +9.8 97 +13  1015.9  0.1  689  266           
21 19.08.17 тихо ()   н/о  слаб. ливневой дождь  10/10 600 м кучево-дожд. 
[Cb cap]
+9.2 +8.8 97 +10  1015.5  -0.7  688  267           
00 20.08.17 230 (ЮЗ) 10 км  слаб. ливневой дождь  10/10 600 м кучево-дожд. 
[Cb cap]
+7.9 +7.3 96 +9  1016.4  0.4  689  268  +7.9    15    влажная 
03 20.08.17 270 (З) 10 км  слаб. ливневой дождь  10/10 600 м кучево-дожд. 
[Cb cap]
+8 +7.1 94 +8  1018.9  2.2  690  269  +7.6         
06 20.08.17 270 (З) 20000 м  слаб. ливневой дождь  10/10 600 м кучево-дожд. 
[Cb cap]
+8 +7.1 94 +9  1019.5  0.6  691  269           
09 20.08.17 180 (Ю) 20000 м  {ливн. осадки}  9/9 600 м кучево-дожд. 
[Cb cap]
+9.6 +7.3 86 +11  1019.5  0.5  691  268           
12 20.08.17 230 (ЮЗ) 20000 м  {ливн. осадки}  9/8 600 м кучево-дожд., средняя, верхняя 
[Cb cap|Ac trans|Ci fib]
+8.4 +6.2 86 +8  1020.7  0.7  692  269    +10.5     
15 20.08.17 тихо ()   н/о    ясно 
+4.6 +4.4 99 +5  1023  0.8  692  273           
18 20.08.17 090 (В) н/о    9/9 600 м кучево-дожд. 
[Cb cap]
+5.7 +5.5 99 +7  1023.1  0.4  693  272           
21 20.08.17 тихо ()   н/о  в посл. час ливневой дождь  6/4 600 м кучево-дожд., средняя, верхняя 
[Cb cap|Ac trans|Ci fib]
+4.8 +4.6 99 +5  1023  -0.4  692  273           
00 21.08.17 200 (Ю) 20000 м  {ливн. осадки}  9/4 600 м кучево-дожд., средняя 
[Cb cap|Ac trans]
+6.4 +5.5 94 +7  1022.9  0.4  693  272  +4.5        влажная 
03 21.08.17 250 (З) 20000 м    10/8 600 м кучево-дожд., средняя 
[Cb cap|Ac und]
+9 +8.6 97 +11  1021.6  0.2  693  269           
Время (UTC), дата Ветер
(°,м/с) 
Видим.   Явления Облачность Т
(°С)
Тd
(°С)
f(%) Тe
(°С)
Pmin
(гПа)
dP
(гПа)
Po
(мм)
O2
(г/м3)
Тmin Tmax R s Состояние
почвы

Для получения пояснительной информации подведите курсор к названию столбца.

ПОГОДА в Коммунаре - архив

Всё, что Вы хотите узнать о погоде в Коммунаре - удобно и подробно!

Выберите нужную дату (начиная с 1 января 2015* года) и нажмите кнопку "Найти".
Будут отображены архивные сводки погоды по пункту Коммунар, начиная с указанной даты.


Отображать данные в формате CSV (для использования в таблицах Excel)


Внимание! Наш архив погоды предназначен исключительно для личного некоммерческого использования в познавательных целях. Если Вам необходимы официальные справки о состоянии погоды (для производственных, юридических, коммерческих и т.п. целей), обращайтесь в органы Росгидромета.

*Примечание: данная дата относится к архиву по метеостанциям СССР (Россия, СНГ, Балтия).
Архив по метеостанциям Зарубежной Европы и Азии (кроме Китая) хранится 10 дней, по другим регионам земного шара (Китай, Африка, Америка, Австралия, Океания) - 1 день.

Коммунар - район местоположения метеостанции


Название, широта, долгота, высота метеостанции:
Коммунар 54.3°ш. 89.3°д. 847 м над ур. моря [Российская Федерация]

Дополнительная информация

В oтличие oт бoльшинства пoгoдных сайтoв мы публикуем пoдрoбную метеoинфoрмацию в детальнoм прoфессиoнальнoм фoрмате.

Характеристики температуры и влажнoсти вoздуха измеряются на высoте 2 м в тени вдали oт зданий и деревьев.
Скoрoсть ветра измеряется на высoте 10 м (на урoвне рoста челoвека скoрoсть ветра ниже в 1.5-2 раза). Если метеoстанция нахoдится в гoрoде или в лесу, тo скoрoсть ветра занижена на 2-4 м/с пo сравнению с oткрытым местoм. Скoрoсть ветра над акватoриями крупных рек и oзёр, а также на вершинах хoлмoв на 2-5 м/с выше, чем в oбычных услoвиях.
Атмoсфернoе давление в разных тoчках местнoсти мoжет значительнo oтличаться oт давления на метеoстанции, в зависимoсти oт услoвий рельефа (при пoдъёме на 10 м давление пoнижается примернo на 1 мм рт.ст.).